Tracking 27188 objects as of 1-Apr-2023
HD Live streaming from Space Station
objects crossing your sky now

STARLINK-30058

Track STARLINK-30058 now!
10-day predictions
STARLINK-30058 is classified as:


NORAD ID: 55708
Int'l Code: 2023-026P
Perigee: 382.1 km
Apogee: 383.7 km
Inclination: 43.0 °
Period: 92.1 minutes
Semi major axis: 6753 km
RCS: Unknown
Launch date: February 27, 2023
Source: United States (US)
Launch site: AIR FORCE EASTERN TEST RANGE (AFETR)
Your satellite tracking list
Your tracking list is empty




NASA's NSSDC Master Catalog

Two Line Element Set (TLE):
1 55708U 23026P   23091.33334491 -.00690806  00000-0 -76982-2 0  9998
2 55708  43.0050  89.6466 0001201 265.7244 358.3875 15.64125925  6108
Source of the keplerian elements: AFSPC